When you browse on this site, cookies collect data to enhance your experience and personalize the content and advertising you see.
Visit our Privacy Policy to learn more. By continuing to use the site, you agree to this use of cookies and data.
  • en Suisse
  • Liste des pays
  • À 7 jours
  • Température de l'eau
  • Carte satellitaire
  • Carte météo
  • Widgets météo
  • user-avatar
    Se connecter

    Météo par heure à Huckelhoven

    Ce jour, 27 Mai, Lundi

    Heure Température Précipitation Vent Pression Humidité
    00:00 +14°C° 0 mm 5 m/s 753 mmHg 87%
    01:00 +14°C° 0.5 mm 5 m/s 753 mmHg 89%
    02:00 +14°C° 0.5 mm 5 m/s 752 mmHg 91%
    03:00 +14°C° 0.5 mm 4 m/s 752 mmHg 93%
    04:00 +14°C° 0.4 mm 4 m/s 752 mmHg 94%
    05:00 +14°C° 0.4 mm 3 m/s 752 mmHg 94%
    06:00 +15°C° 0.4 mm 2 m/s 752 mmHg 95%
    07:00 +16°C° 0.1 mm 2 m/s 753 mmHg 87%
    08:00 +17°C° 0.1 mm 3 m/s 753 mmHg 80%
    09:00 +18°C° 0.1 mm 3 m/s 753 mmHg 73%
    10:00 +18°C° 0.2 mm 3 m/s 753 mmHg 69%
    11:00 +19°C° 0.2 mm 3 m/s 752 mmHg 66%
    12:00 +19°C° 0.2 mm 4 m/s 752 mmHg 62%
    13:00 +19°C° 0 mm 4 m/s 752 mmHg 60%
    14:00 +20°C° 0 mm 4 m/s 752 mmHg 57%
    15:00 +20°C° 0 mm 5 m/s 752 mmHg 55%
    16:00 +19°C° 0 mm 4 m/s 752 mmHg 59%
    17:00 +18°C° 0 mm 3 m/s 752 mmHg 62%
    18:00 +17°C° 0 mm 3 m/s 752 mmHg 66%
    19:00 +16°C° 0 mm 2 m/s 752 mmHg 67%
    20:00 +15°C° 0 mm 2 m/s 752 mmHg 68%
    21:00 +14°C° 0 mm 1 m/s 752 mmHg 70%
    22:00 +13°C° 0 mm 2 m/s 751 mmHg 74%
    23:00 +13°C° 0 mm 2 m/s 751 mmHg 78%

    Demain, 28 Mai, Mardi

    Heure Température Précipitation Vent Pression Humidité
    00:00 +12°C° 0 mm 2 m/s 751 mmHg 82%
    01:00 +11°C° 0.1 mm 3 m/s 751 mmHg 85%
    02:00 +10°C° 0.1 mm 3 m/s 751 mmHg 89%
    03:00 +10°C° 0.1 mm 3 m/s 751 mmHg 92%
    04:00 +10°C° 0.1 mm 3 m/s 751 mmHg 91%
    05:00 +11°C° 0.1 mm 3 m/s 751 mmHg 90%
    06:00 +11°C° 0.1 mm 4 m/s 751 mmHg 89%
    07:00 +12°C° 0.8 mm 4 m/s 751 mmHg 84%
    08:00 +14°C° 0.8 mm 4 m/s 751 mmHg 79%
    09:00 +15°C° 0.8 mm 4 m/s 751 mmHg 74%
    10:00 +15°C° 0.9 mm 4 m/s 751 mmHg 71%
    11:00 +17°C° 0.9 mm 4 m/s 751 mmHg 69%
    12:00 +17°C° 0.9 mm 4 m/s 751 mmHg 66%
    13:00 +17°C° 0.6 mm 4 m/s 752 mmHg 66%
    14:00 +17°C° 0.6 mm 4 m/s 752 mmHg 67%
    15:00 +18°C° 0.6 mm 4 m/s 752 mmHg 67%
    16:00 +17°C° 0.5 mm 4 m/s 753 mmHg 70%
    17:00 +16°C° 0.5 mm 3 m/s 753 mmHg 74%
    18:00 +14°C° 0.5 mm 3 m/s 754 mmHg 77%
    19:00 +13°C° 0 mm 3 m/s 755 mmHg 79%
    20:00 +12°C° 0 mm 3 m/s 756 mmHg 80%
    21:00 +10°C° 0 mm 3 m/s 756 mmHg 82%
    22:00 +10°C° 0 mm 3 m/s 757 mmHg 82%
    23:00 +9°C° 0 mm 2 m/s 757 mmHg 83%

    Après-demain, 29 Mai, Mercredi

    Heure Température Précipitation Vent Pression Humidité
    00:00 +9°C° 0 mm 2 m/s 757 mmHg 84%
    01:00 +8°C° 0 mm 2 m/s 758 mmHg 85%
    02:00 +8°C° 0 mm 2 m/s 758 mmHg 85%
    03:00 +8°C° 0 mm 1 m/s 758 mmHg 86%
    04:00 +9°C° 0 mm 1 m/s 758 mmHg 83%
    05:00 +10°C° 0 mm 1 m/s 759 mmHg 79%
    06:00 +10°C° 0 mm 2 m/s 759 mmHg 76%
    07:00 +13°C° 0 mm 2 m/s 759 mmHg 70%
    08:00 +15°C° 0 mm 2 m/s 759 mmHg 63%
    09:00 +16°C° 0 mm 2 m/s 759 mmHg 57%
    10:00 +17°C° 0 mm 2 m/s 758 mmHg 55%
    11:00 +19°C° 0 mm 2 m/s 758 mmHg 52%
    12:00 +20°C° 0 mm 2 m/s 758 mmHg 49%
    13:00 +19°C° 0.3 mm 3 m/s 757 mmHg 54%
    14:00 +19°C° 0.3 mm 3 m/s 757 mmHg 58%
    15:00 +19°C° 0.3 mm 4 m/s 757 mmHg 63%
    16:00 +18°C° 0.2 mm 4 m/s 757 mmHg 68%
    17:00 +17°C° 0.2 mm 4 m/s 757 mmHg 73%
    18:00 +15°C° 0.2 mm 4 m/s 756 mmHg 79%
    19:00 +14°C° 0.1 mm 4 m/s 757 mmHg 81%
    20:00 +13°C° 0.1 mm 4 m/s 757 mmHg 83%
    21:00 +13°C° 0.1 mm 5 m/s 757 mmHg 86%
    22:00 +13°C° 0.5 mm 5 m/s 757 mmHg 88%
    23:00 +13°C° 0.5 mm 5 m/s 756 mmHg 90%

    30 Mai, Jeudi

    Heure Température Précipitation Vent Pression Humidité
    00:00 +13°C° 0.5 mm 5 m/s 756 mmHg 92%
    01:00 +13°C° 0.1 mm 5 m/s 756 mmHg 93%
    02:00 +14°C° 0.1 mm 5 m/s 756 mmHg 93%
    03:00 +14°C° 0.1 mm 5 m/s 757 mmHg 94%
    04:00 +14°C° 0.1 mm 5 m/s 757 mmHg 94%
    05:00 +14°C° 0.1 mm 4 m/s 757 mmHg 94%
    06:00 +14°C° 0.1 mm 4 m/s 758 mmHg 94%
    07:00 +14°C° 0.1 mm 4 m/s 758 mmHg 92%
    08:00 +15°C° 0.1 mm 4 m/s 758 mmHg 90%
    09:00 +15°C° 0.1 mm 4 m/s 759 mmHg 88%
    10:00 +16°C° 0.2 mm 5 m/s 759 mmHg 86%
    11:00 +17°C° 0.2 mm 5 m/s 759 mmHg 84%
    12:00 +19°C° 0.2 mm 6 m/s 759 mmHg 81%
    13:00 +17°C° 0.3 mm 5 m/s 759 mmHg 84%
    14:00 +17°C° 0.3 mm 5 m/s 759 mmHg 87%
    15:00 +16°C° 0.3 mm 5 m/s 759 mmHg 89%
    16:00 +16°C° 0.1 mm 5 m/s 759 mmHg 89%
    17:00 +16°C° 0.1 mm 5 m/s 759 mmHg 89%
    18:00 +16°C° 0.1 mm 5 m/s 760 mmHg 88%
    19:00 +16°C° 0.5 mm 6 m/s 760 mmHg 89%
    20:00 +16°C° 0.5 mm 6 m/s 760 mmHg 90%
    21:00 +15°C° 0.5 mm 6 m/s 760 mmHg 92%
    22:00 +15°C° 0.1 mm 6 m/s 760 mmHg 91%
    23:00 +14°C° 0.1 mm 6 m/s 760 mmHg 91%

    31 Mai, Vendredi

    Heure Température Précipitation Vent Pression Humidité
    00:00 +14°C° 0.1 mm 6 m/s 760 mmHg 91%
    01:00 +14°C° 0.3 mm 6 m/s 759 mmHg 92%
    02:00 +14°C° 0.3 mm 6 m/s 759 mmHg 93%
    03:00 +13°C° 0.3 mm 6 m/s 759 mmHg 94%
    04:00 +14°C° 0.1 mm 5 m/s 760 mmHg 93%
    05:00 +14°C° 0.1 mm 5 m/s 760 mmHg 92%
    06:00 +14°C° 0.1 mm 5 m/s 760 mmHg 92%
    07:00 +15°C° 0.2 mm 5 m/s 761 mmHg 89%
    08:00 +15°C° 0.2 mm 6 m/s 761 mmHg 86%
    09:00 +15°C° 0.2 mm 6 m/s 762 mmHg 83%
    10:00 +15°C° 0.1 mm 6 m/s 762 mmHg 80%
    11:00 +15°C° 0.1 mm 5 m/s 763 mmHg 76%
    12:00 +15°C° 0.1 mm 5 m/s 763 mmHg 73%
    13:00 +15°C° 0 mm 4 m/s 764 mmHg 71%
    14:00 +15°C° 0 mm 4 m/s 764 mmHg 70%
    15:00 +16°C° 0 mm 3 m/s 765 mmHg 68%
    16:00 +14°C° 0 mm 3 m/s 765 mmHg 70%
    17:00 +14°C° 0 mm 3 m/s 765 mmHg 71%
    18:00 +15°C° 0 mm 2 m/s 765 mmHg 73%
    19:00 +13°C° 0 mm 2 m/s 766 mmHg 75%
    20:00 +12°C° 0 mm 1 m/s 766 mmHg 78%
    21:00 +11°C° 0 mm 1 m/s 767 mmHg 81%
    22:00 +10°C° 0 mm 1 m/s 767 mmHg 82%
    23:00 +9°C° 0 mm 1 m/s 767 mmHg 83%

    1 Juin, Samedi

    Heure Température Précipitation Vent Pression Humidité
    00:00 +9°C° 0 mm 1 m/s 767 mmHg 84%
    01:00 +9°C° 0 mm 1 m/s 767 mmHg 84%
    02:00 +8°C° 0 mm 1 m/s 767 mmHg 85%
    03:00 +8°C° 0 mm 1 m/s 767 mmHg 86%
    04:00 +9°C° 0 mm 1 m/s 767 mmHg 82%
    05:00 +11°C° 0 mm 1 m/s 767 mmHg 79%
    06:00 +12°C° 0 mm 2 m/s 767 mmHg 75%
    07:00 +13°C° 0 mm 1 m/s 767 mmHg 68%
    08:00 +15°C° 0 mm 1 m/s 767 mmHg 60%
    09:00 +18°C° 0 mm 1 m/s 767 mmHg 53%
    10:00 +19°C° 0 mm 1 m/s 767 mmHg 49%
    11:00 +20°C° 0 mm 1 m/s 767 mmHg 46%
    12:00 +20°C° 0 mm 0 m/s 766 mmHg 42%
    13:00 +20°C° 0 mm 0 m/s 766 mmHg 42%
    14:00 +20°C° 0 mm 0 m/s 766 mmHg 41%
    15:00 +21°C° 0 mm 0 m/s 765 mmHg 40%
    16:00 +22°C° 0 mm 1 m/s 765 mmHg 44%
    17:00 +21°C° 0 mm 1 m/s 765 mmHg 49%
    18:00 +21°C° 0 mm 1 m/s 765 mmHg 53%
    19:00 +19°C° 0 mm 1 m/s 765 mmHg 53%
    20:00 +15°C° 0 mm 0 m/s 766 mmHg 52%
    21:00 +14°C° 0 mm 0 m/s 766 mmHg 52%
    22:00 +14°C° 0 mm 1 m/s 766 mmHg 53%
    23:00 +14°C° 0 mm 1 m/s 766 mmHg 54%
    Voir plus